Accueil
METAR-TAF:

METAR-TAF

Aéroports :

Auburn/Lewiston Municipal Airport

Auburn / Lewiston, Maine, États-Unis

latitude: 44-03N, longitude: 070-17W, altitude: 88 m

Observation

Le bulletin a été fait il y a 1 heure et 0 minutes, à 23:56 UTC
Vent 7 kt de sud/sud-est
Température 21°C
Humidité 64%
Pression 1025 hPa
Visibilité: 16.1 km
Ciel clair

METAR: KLEW 152356Z AUTO 15007KT 10SM CLR 21/14 A3026 RMK AO2 SLP252 6//// T02110144 10239 20211 53009

Heure: 20:56 (00:56 UTC)


TAF: absent

Observations et prévisions météorologiques de plus de 4000 aéroports (messages METAR et TAF).

Les stations disponibles sont représentées par des disques jaunes et rouges sur la carte.

Passer la souris dessus pour voir le nom de la station.

Cliquer dessus pour voir les observations et prévisions météorologiques.

Pour changer de carte: cliquez sur les boutons verts avec une croix noire pour zoomer, sur le bouton vert avec un tiret pour effectuer un zoom arrière, ou sur les flèches vertes pour les cartes adjacentes.


METAR-TAF: